ARIANE 5 DEB (SYLDA), 45247

Orbit data source: Space-Track

ARIANE 5 DEB (SYLDA), 45247 is space debris in HEO originally from a launch on Tue, 18 Feb 2020 UTC launched from the French Guiana (FRGUI). Debris objects in space refer to the collection of defunct objects orbiting the Earth. Examples of debris include non-operational satellites, rocket bodies, and fragments generated from explosions, collisions, or faulty payload assembly.

Loading next visibility...
Identifier
45247, 2020-013C
Orbit
HEO
Country
Flag of FRFR
Related business
Manufacturer
ADS/Bremen
Mission
Spacecraft
Bus & Motor
SYLDA 5, Unknown motor
Mass
440 kg wet, 440 kg dry
Launch date (UTC)
2020-02-18 (6 years ago)
Launch vehicle
Unknown
Launch site
French Guiana (FRGUI)
Object type
Payload
Rocket body
Debris
Shape & HBR
Cyl, Unknown HBR
Radar Cross Section
27.391 m², Large (>1 m²)

Expand to show TLE details & history
Last TLE update: 18 hours ago

TLE from 18 hours ago
0 ARIANE 5 DEB (SYLDA)
1 45247U 20013C   25258.52267721  .00018772  00000-0  50124-2 0  9991
2 45247   5.7711   3.8077 6426978  46.9671 351.3418  3.41091376 54430
Epoch: 2025-09-15T12:32Z
TLE epoch observation values (Epoch: 2025-09-15T12:32:39.31Z)
Latitude
0.00001°
Longitude
-179.08991°
Altitude
1,231.358 km
Speed
9.131 km/s
True Right ascension
00h 15m 11s
True Declination
0° 00' 00"
Sunlit
Object was in full shadow at epoch
Visualization orbit readout
Latitude
Unknown
Longitude
Unknown
Altitude
Unknown
Speed
Unknown
Apparent Right ascension
Unknown
Apparent Declination
Unknown
Sunlit
N/A
Visualization observer readout
Local Sidereal Time
23:33:26
Azimuth
Unknown
Elevation
Unknown
Doppler factor
Unknown
Orbital elements
Apogee altitude
24,253.239 km
Perigee altitude
284.475 km
Semi-major axis
18,646.994 km
Eccentricity
0.6427
Inclination
5.7711°
RAAN
3.8077°
Arg. of periapsis
46.9671°
True anomaly
312.64965°
Mean anomaly
351.3418°
Eccentric anomaly
336.88637°
Mean motion
0.85237 °/min
Orbital period
422.35 mins
BSTAR
0.0050124
Loading maneuver chart data...
Computing Atmospheric mass density...
Loading historical data...
Loading historical data...
Loading historical data...
Loading historical data...
Loading historical data...
Loading historical data...
Loading historical data...
Other satellites on launch #13 in the year 2020 (2020-02-18 UTC)

Documentation

Showing up to 5 results
|